ATLAS 5 CENTAUR DEB, 43973

Orbit data source: Space-Track

ATLAS 5 CENTAUR DEB, 43973 is space debris in HEO originally from a launch on Wed, 17 Sep 2014 UTC launched from the Air Force Eastern Test Range (AFETR). Debris objects in space refer to the collection of defunct objects orbiting the Earth. Examples of debris include non-operational satellites, rocket bodies, and fragments generated from explosions, collisions, or faulty payload assembly.

Loading next visibility...
Identifier
43973, 2014-055AC
Orbit
HEO
Country
Flag of USUS
Related business
Flag of USUnited Launch Alliance/Lockheed Martin (US)
Manufacturer
Unknown
Mission
Spacecraft
Bus & Motor
Unknown
Mass
Unknown
Launch date (UTC)
2014-09-17 (12 years ago)
Launch vehicle
Unknown
Launch site
Air Force Eastern Test Range (AFETR)
Object type
Payload
Rocket body
Debris
Shape & HBR
Unknown shape, 1.1 m
Radar Cross Section
Medium (>0.1 m² and <1 m²)

Expand to show TLE details & history
Last TLE update: 2 weeks ago

TLE from 2 weeks ago
0 ATLAS 5 CENTAUR DEB
1 43973U 14055AC  26247.79909951 -.00000201  00000-0  00000-0 0  9995
2 43973  21.0563  99.3388 5012150 251.4193  49.4176  1.92502075 56399
Epoch: 2026-09-04T19:10Z
TLE epoch observation values (Epoch: 2026-09-04T19:10:42.197Z)
Latitude
-0.00003°
Longitude
-172.17305°
Altitude
17,952.284 km
Speed
4.262 km/s
True Right ascension
06h 37m 40s
True Declination
0° 00' 00"
Sunlit
Object was in daylight at epoch
Visualization orbit readout
Latitude
Unknown
Longitude
Unknown
Altitude
Unknown
Speed
Unknown
Apparent Right ascension
Unknown
Apparent Declination
Unknown
Sunlit
N/A
Visualization observer readout
Local Sidereal Time
16:37:24
Azimuth
Unknown
Elevation
Unknown
Doppler factor
Unknown
Orbital elements
Apogee altitude
34,603.252 km
Perigee altitude
7,238.102 km
Semi-major axis
27,298.814 km
Eccentricity
0.50122
Inclination
21.0563°
RAAN
99.3388°
Arg. of periapsis
251.4193°
True anomaly
108.57864°
Mean anomaly
49.4176°
Eccentric anomaly
77.44882°
Mean motion
0.4812 °/min
Orbital period
748.13 mins
BSTAR
0
Loading maneuver chart data...
Computing Atmospheric mass density...

Documentation

Showing up to 5 results
|